• In Kazakhstan
  • List of Countries
  • For 7 days
  • Water Temperature
  • Weather Map
  • News
  • Weather Widgets
  • user-avatar
    Login

    Hourly Weather Cobija

    Today, 13 November, Wednesday

    Time Temperature Precipitation Wind Pressure Humidity
    00:00 +23°C° 0 mm 0 mps 735 mmHg 85%
    01:00 +23°C° 0 mm 0 mps 735 mmHg 86%
    02:00 +23°C° 0.4 mm 0 mps 735 mmHg 89%
    03:00 +24°C° 0.4 mm 1 mps 735 mmHg 92%
    04:00 +24°C° 0.4 mm 1 mps 735 mmHg 95%
    05:00 +25°C° 0.3 mm 1 mps 736 mmHg 92%
    06:00 +26°C° 0.3 mm 1 mps 736 mmHg 90%
    07:00 +27°C° 0.3 mm 1 mps 737 mmHg 87%
    08:00 +29°C° 0 mm 1 mps 737 mmHg 76%
    09:00 +31°C° 0 mm 1 mps 737 mmHg 65%
    10:00 +34°C° 0 mm 1 mps 736 mmHg 54%
    11:00 +35°C° 0 mm 1 mps 736 mmHg 49%
    12:00 +36°C° 0 mm 1 mps 735 mmHg 45%
    13:00 +37°C° 0 mm 1 mps 734 mmHg 40%
    14:00 +36°C° 0 mm 1 mps 733 mmHg 44%
    15:00 +35°C° 0 mm 1 mps 732 mmHg 49%
    16:00 +34°C° 0 mm 1 mps 732 mmHg 53%
    17:00 +32°C° 0.1 mm 1 mps 732 mmHg 59%
    18:00 +29°C° 0.1 mm 0 mps 732 mmHg 65%
    19:00 +27°C° 0.1 mm 0 mps 733 mmHg 71%
    20:00 +26°C° 1.3 mm 0 mps 733 mmHg 77%
    21:00 +25°C° 1.3 mm 0 mps 734 mmHg 84%
    22:00 +24°C° 1.3 mm 0 mps 735 mmHg 90%
    23:00 +24°C° 2.3 mm 0 mps 734 mmHg 93%

    Tomorrow, 14 November, Thursday

    Time Temperature Precipitation Wind Pressure Humidity
    00:00 +23°C° 2.3 mm 0 mps 734 mmHg 95%
    01:00 +23°C° 2.3 mm 0 mps 734 mmHg 98%
    02:00 +23°C° 2.8 mm 0 mps 734 mmHg 98%
    03:00 +23°C° 2.8 mm 0 mps 734 mmHg 99%
    04:00 +23°C° 2.8 mm 0 mps 734 mmHg 99%
    05:00 +25°C° 4.3 mm 1 mps 735 mmHg 99%
    06:00 +25°C° 4.3 mm 1 mps 736 mmHg 99%
    07:00 +25°C° 4.3 mm 2 mps 737 mmHg 98%
    08:00 +25°C° 2.3 mm 2 mps 737 mmHg 98%
    09:00 +25°C° 2.3 mm 1 mps 737 mmHg 97%
    10:00 +25°C° 2.3 mm 1 mps 737 mmHg 97%
    11:00 +27°C° 0 mm 1 mps 736 mmHg 85%
    12:00 +29°C° 0 mm 1 mps 735 mmHg 73%
    13:00 +31°C° 0 mm 1 mps 734 mmHg 61%
    14:00 +32°C° 0 mm 1 mps 733 mmHg 59%
    15:00 +32°C° 0 mm 1 mps 733 mmHg 58%
    16:00 +33°C° 0 mm 1 mps 733 mmHg 56%
    17:00 +31°C° 0.1 mm 1 mps 733 mmHg 64%
    18:00 +27°C° 0.1 mm 0 mps 733 mmHg 73%
    19:00 +25°C° 0.1 mm 0 mps 733 mmHg 81%
    20:00 +24°C° 0.6 mm 0 mps 734 mmHg 86%
    21:00 +24°C° 0.6 mm 0 mps 735 mmHg 90%
    22:00 +23°C° 0.6 mm 0 mps 735 mmHg 95%
    23:00 +23°C° 0.4 mm 0 mps 735 mmHg 95%

    Day after tomorrow, 15 November, Friday

    Time Temperature Precipitation Wind Pressure Humidity
    00:00 +23°C° 0.4 mm 0 mps 734 mmHg 96%
    01:00 +23°C° 0.4 mm 0 mps 734 mmHg 97%
    02:00 +22°C° 0.3 mm 0 mps 734 mmHg 97%
    03:00 +22°C° 0.3 mm 0 mps 734 mmHg 97%
    04:00 +22°C° 0.3 mm 0 mps 735 mmHg 98%
    05:00 +24°C° 0 mm 0 mps 735 mmHg 81%
    06:00 +25°C° 0 mm 0 mps 736 mmHg 76%
    07:00 +27°C° 0 mm 0 mps 736 mmHg 71%
    08:00 +28°C° 0.4 mm 0 mps 737 mmHg 69%
    09:00 +32°C° 0.4 mm 1 mps 737 mmHg 68%
    10:00 +33°C° 0.4 mm 1 mps 737 mmHg 66%
    11:00 +31°C° 1.8 mm 2 mps 737 mmHg 74%
    12:00 +29°C° 1.8 mm 2 mps 736 mmHg 82%
    13:00 +26°C° 1.8 mm 3 mps 736 mmHg 89%
    14:00 +26°C° 4.5 mm 3 mps 735 mmHg 92%
    15:00 +25°C° 4.5 mm 2 mps 735 mmHg 94%
    16:00 +24°C° 4.5 mm 2 mps 735 mmHg 97%
    17:00 +24°C° 0.7 mm 1 mps 735 mmHg 97%
    18:00 +24°C° 0.7 mm 1 mps 736 mmHg 98%
    19:00 +23°C° 0.7 mm 1 mps 736 mmHg 99%
    20:00 +21°C° 1.3 mm 0 mps 737 mmHg 99%
    21:00 +21°C° 1.3 mm 0 mps 737 mmHg 99%
    22:00 +21°C° 1.3 mm 0 mps 737 mmHg 99%
    23:00 +21°C° 3.4 mm 0 mps 737 mmHg 99%

    16 November, Saturday

    Time Temperature Precipitation Wind Pressure Humidity
    00:00 +21°C° 3.4 mm 0 mps 737 mmHg 99%
    01:00 +21°C° 3.4 mm 0 mps 736 mmHg 99%
    02:00 +21°C° 1.3 mm 0 mps 736 mmHg 99%
    03:00 +21°C° 1.3 mm 0 mps 736 mmHg 99%
    04:00 +23°C° 1.3 mm 1 mps 736 mmHg 99%
    05:00 +23°C° 0.4 mm 1 mps 736 mmHg 99%
    06:00 +23°C° 0.4 mm 1 mps 737 mmHg 99%
    07:00 +21°C° 0.4 mm 0 mps 737 mmHg 99%
    08:00 +21°C° 0.2 mm 0 mps 737 mmHg 98%
    09:00 +21°C° 0.2 mm 0 mps 737 mmHg 96%
    10:00 +22°C° 0.2 mm 0 mps 737 mmHg 95%
    11:00 +22°C° 0.1 mm 0 mps 737 mmHg 94%
    12:00 +22°C° 0.1 mm 0 mps 736 mmHg 92%
    13:00 +23°C° 0.1 mm 0 mps 735 mmHg 91%
    14:00 +23°C° 0 mm 0 mps 735 mmHg 90%
    15:00 +23°C° 0 mm 0 mps 734 mmHg 89%
    16:00 +23°C° 0 mm 0 mps 733 mmHg 88%
    17:00 +22°C° 0 mm 0 mps 733 mmHg 91%
    18:00 +22°C° 0 mm 0 mps 734 mmHg 94%
    19:00 +23°C° 0 mm 1 mps 734 mmHg 97%
    20:00 +23°C° 0 mm 1 mps 734 mmHg 98%
    21:00 +20°C° 0 mm 0 mps 735 mmHg 98%
    22:00 +20°C° 0 mm 0 mps 735 mmHg 99%
    23:00 +20°C° 0 mm 0 mps 735 mmHg 98%

    17 November, Sunday

    Time Temperature Precipitation Wind Pressure Humidity
    00:00 +20°C° 0 mm 0 mps 735 mmHg 97%
    01:00 +21°C° 0 mm 0 mps 735 mmHg 96%
    02:00 +21°C° 0 mm 0 mps 734 mmHg 96%
    03:00 +20°C° 0 mm 0 mps 734 mmHg 96%
    04:00 +20°C° 0 mm 0 mps 734 mmHg 96%
    05:00 +21°C° 0 mm 0 mps 735 mmHg 93%
    06:00 +22°C° 0 mm 0 mps 735 mmHg 89%
    07:00 +22°C° 0 mm 0 mps 736 mmHg 86%
    08:00 +26°C° 0 mm 1 mps 736 mmHg 76%
    09:00 +29°C° 0 mm 1 mps 736 mmHg 67%
    10:00 +31°C° 0 mm 1 mps 736 mmHg 57%
    11:00 +32°C° 0 mm 1 mps 735 mmHg 52%
    12:00 +33°C° 0 mm 1 mps 734 mmHg 48%
    13:00 +36°C° 0 mm 2 mps 733 mmHg 43%
    14:00 +34°C° 0 mm 1 mps 733 mmHg 44%
    15:00 +34°C° 0 mm 1 mps 732 mmHg 45%
    16:00 +34°C° 0 mm 1 mps 731 mmHg 46%
    17:00 +31°C° 0.3 mm 1 mps 732 mmHg 60%
    18:00 +26°C° 0.3 mm 0 mps 732 mmHg 75%
    19:00 +23°C° 0.3 mm 0 mps 732 mmHg 89%
    20:00 +23°C° 0.3 mm 0 mps 733 mmHg 91%
    21:00 +22°C° 0.3 mm 0 mps 734 mmHg 93%
    22:00 +22°C° 0.3 mm 0 mps 735 mmHg 95%
    23:00 +22°C° 0.2 mm 0 mps 734 mmHg 95%

    18 November, Monday

    Time Temperature Precipitation Wind Pressure Humidity
    00:00 +22°C° 0.2 mm 0 mps 734 mmHg 96%
    01:00 +22°C° 0.2 mm 0 mps 734 mmHg 96%
    02:00 +22°C° 0 mm 0 mps 734 mmHg 96%
    03:00 +21°C° 0 mm 0 mps 734 mmHg 97%
    04:00 +21°C° 0 mm 0 mps 734 mmHg 97%
    05:00 +22°C° 0 mm 0 mps 735 mmHg 94%
    06:00 +23°C° 0 mm 0 mps 735 mmHg 90%
    07:00 +26°C° 0 mm 1 mps 736 mmHg 87%
    08:00 +29°C° 0 mm 1 mps 736 mmHg 72%
    09:00 +32°C° 0 mm 1 mps 736 mmHg 58%
    10:00 +35°C° 0 mm 1 mps 736 mmHg 44%
    11:00 +36°C° 0 mm 1 mps 735 mmHg 42%
    12:00 +36°C° 0 mm 1 mps 734 mmHg 40%
    13:00 +37°C° 0 mm 2 mps 733 mmHg 38%
    14:00 +36°C° 0 mm 1 mps 733 mmHg 40%
    15:00 +35°C° 0 mm 1 mps 732 mmHg 43%
    16:00 +34°C° 0 mm 1 mps 732 mmHg 45%
    17:00 +32°C° 0.1 mm 1 mps 732 mmHg 56%
    18:00 +30°C° 0.1 mm 1 mps 733 mmHg 66%
    19:00 +28°C° 0.1 mm 2 mps 733 mmHg 77%
    20:00 +26°C° 0.3 mm 1 mps 734 mmHg 83%
    21:00 +25°C° 0.3 mm 1 mps 735 mmHg 89%
    22:00 +22°C° 0.3 mm 0 mps 735 mmHg 95%
    23:00 +22°C° 0.1 mm 0 mps 735 mmHg 95%
    Show more